EST,Max TemperatureF,Mean TemperatureF,Min TemperatureF,Max Dew PointF,MeanDew PointF,Min DewpointF,Max Humidity, Mean Humidity, Min Humidity, Max Sea Level PressureIn, Mean Sea Level PressureIn, Min Sea Level PressureIn, Max VisibilityMiles, Mean VisibilityMiles, Min VisibilityMiles, Max Wind SpeedMPH, Mean Wind SpeedMPH, Max Gust SpeedMPH,PrecipitationIn, CloudCover, Events, WindDirDegrees
2012-11-1,47,40,33,34,29,23,82,65,44,29.80,29.73,29.69,10,10,5,20,12,24,0.00,7,Rain,315
2012-11-2,42,38,33,33,30,27,94,74,60,30.09,29.95,29.80,10,10,7,17,9,25,0.00,7,,329
2012-11-3,41,37,33,32,29,25,94,75,57,30.19,30.16,30.10,10,10,10,10,5,,0.00,8,Snow,355
2012-11-4,43,36,27,28,25,23,93,66,47,30.21,30.18,30.14,10,10,10,9,4,,0.00,5,,17
2012-11-5,36,30,23,27,24,21,94,77,56,30.22,30.18,30.13,10,10,10,5,1,,0.00,6,,37
2012-11-6,41,32,22,29,25,20,93,72,53,30.13,30.01,29.93,10,10,7,12,3,17,0.00,7,,146
2012-11-7,46,36,27,28,26,24,94,67,43,30.14,30.06,29.96,10,10,10,9,3,,0.00,3,,108
2012-11-8,43,34,24,37,30,23,94,81,61,30.18,30.13,30.08,10,7,5,6,1,,0.00,6,,190
2012-11-9,50,44,38,38,37,34,89,73,62,30.12,30.09,30.05,7,6,4,6,2,,0.00,8,,159
2012-11-10,60,48,42,46,41,37,94,77,62,30.08,30.00,29.91,10,5,2,12,4,,0.00,5,Rain,124
2012-11-11,69,62,54,53,46,41,89,55,44,29.96,29.88,29.79,10,10,4,25,13,36,0.00,4,Rain,195
2012-11-12,52,41,29,50,30,16,92,76,55,30.19,29.97,29.81,10,9,4,22,9,30,0.00,8,Rain-Snow,254
2012-11-13,37,30,22,23,19,16,90,65,43,30.48,30.38,30.20,10,10,7,8,5,,0.00,4,Snow,250
2012-11-14,39,30,20,26,22,18,93,74,51,30.52,30.47,30.39,10,10,10,10,2,,0.00,3,,166
2012-11-15,45,35,25,32,27,24,95,83,54,30.39,30.34,30.29,10,8,4,10,1,16,0.00,0,,196
2012-11-16,44,34,23,38,30,21,99,91,72,30.47,30.42,30.34,5,3,0,6,1,,0.00,4,Fog,29
2012-11-17,52,39,26,42,29,26,98,83,37,30.55,30.51,30.47,10,5,0,12,1,20,0.00,4,Fog,194
2012-11-18,54,40,25,34,28,24,96,76,34,30.50,30.44,30.37,10,7,2,12,2,23,0.00,0,,157
2012-11-19,51,38,25,38,32,24,98,83,56,30.37,30.26,30.13,10,6,0,7,0,,0.00,3,Fog-Rain,183
2012-11-20,47,42,37,45,41,36,97,93,84,30.14,30.10,30.07,7,4,1,9,1,,0.00,8,Rain,209
2012-11-21,54,43,33,48,41,33,99,92,65,30.21,30.14,30.04,10,2,0,15,2,21,0.00,5,Fog,178
2012-11-22,62,54,45,47,43,35,93,69,36,30.05,29.89,29.66,10,7,2,22,9,31,0.00,3,,193
2012-11-23,55,44,32,46,26,18,83,65,58,30.00,29.79,29.61,10,9,0,26,17,43,0.00,8,Snow,288
2012-11-24,31,30,28,21,19,17,70,63,57,30.10,30.05,29.95,10,10,10,15,11,23,0.00,8,Snow,305
2012-11-25,34,31,28,28,25,19,92,78,66,29.95,29.84,29.77,10,8,1,10,5,16,0.00,8,Snow,240
2012-11-26,32,29,26,24,18,15,70,60,54,30.28,30.14,29.96,10,10,10,14,8,18,0.00,8,Snow,297
2012-11-27,34,28,21,20,17,15,78,64,52,30.31,30.24,30.14,10,10,10,10,3,,0.00,4,,236
2012-11-28,35,30,26,26,21,18,83,69,51,30.25,30.20,30.12,10,10,2,16,6,24,0.00,4,Snow,263
2012-11-29,48,36,24,33,28,22,96,80,53,30.19,30.16,30.10,10,8,4,12,4,16,0.00,2,,191
2012-11-30,36,34,33,35,32,28,97,89,79,30.24,30.19,30.15,10,6,1,13,7,21,0.00,8,,91